Content
SEND FEEDBACK

Daily
Averages
Monthly
Summary
France

AVIGNON, FRANCE


Home > Europe > France
Elevation: 187 feet     Latitude: 44 00N     Longitude: 004 45E

WEATHER
 
SELECT A DAY
Number of Records: 167,278;   Date Range: 5/17/04 - 7/30/14
 
SHARE

PRINT THIS DATA

[ ← Previous Day ]
WEATHER ALMANAC - JULY 23, 2013
[ Next Day → ]
[ °C ]   °F
Weather ElementAverageHighLow
Temperature79.5 °F95 °F (3:00 pm)64.4 °F (4:00 am)
Dewpoint59 °F66.2 °F (8:30 pm)53.6 °F (12:00 pm)
Humidity53.1 %83 % (7:00 am)26 % (3:00 pm)
Barometer29.95 in29.98 in (12:30 am)29.89 in (5:00 pm)
Wind Speed5 mph15 mph (7:00 pm)
Weather ElementAverage
Visibility6.2 mi
Wind DirectionESE (96.8 °)

Weather ElementTotal
Precipitation---
Cooling Degree Days14.7 (Base 65)
Growing Degree Days29.7 (Base 50)
Averaged from 47 records on July 23, 2013
WEATHER CONDITIONS BREAKOUT
WIND DIRECTION BREAKOUT
WEATHER BY HOUR - JULY 23, 2013
[ °C ]   °F
Local TimeTemperatureDewpointHumidityBarometerVisibilityWind DirectionWind SpeedGust SpeedPrecipitationEventsConditions
12:30 AM73.4 °F55.4 °F53 %29.98 in6.2 miCalm
1:00 AM69.8 °F57.2 °F64 %29.98 in6.2 miVariable1.2 mph
1:30 AM73.4 °F59.0 °F61 %29.98 in6.2 miVariable2.3 mph
2:00 AM71.6 °F57.2 °F60 %29.98 in6.2 miVariable2.3 mph
2:30 AM69.8 °F57.2 °F64 %29.98 in6.2 miSSE (150°)1.2 mph
3:00 AM66.2 °F55.4 °F68 %29.95 in6.2 miSSE (150°)3.5 mph
3:30 AM66.2 °F57.2 °F73 %29.95 in6.2 miCalm
4:00 AM64.4 °F57.2 °F77 %29.95 in6.2 miCalm
4:30 AM64.4 °F57.2 °F77 %29.95 in6.2 miVariable2.3 mph
5:00 AM64.4 °F57.2 °F77 %29.95 in6.2 miCalm
5:30 AM64.4 °F57.2 °F77 %29.95 in6.2 miVariable2.3 mph
6:00 AM64.4 °F57.2 °F77 %29.95 in6.2 miCalm
6:30 AM64.4 °F57.2 °F77 %29.95 in6.2 miVariable3.5 mph
7:00 AM64.4 °F59.0 °F83 %29.98 in6.2 miCalm
7:30 AM69.8 °F59.0 °F68 %29.95 in6.2 miSE (140°)3.5 mph
8:00 AM71.6 °F57.2 °F60 %29.98 in6.2 miVariable3.5 mph
8:30 AM75.2 °F59.0 °F57 %29.98 in6.2 miVariable2.3 mph
9:00 AM77.0 °F59.0 °F54 %29.98 in6.2 miCalm
9:30 AM78.8 °F59.0 °F51 %29.98 in6.2 miVariable2.3 mph
10:00 AM80.6 °F59.0 °F48 %29.98 in6.2 miVariable3.5 mph
10:30 AM82.4 °F59.0 °F45 %29.98 in6.2 miVariable3.5 mph
11:00 AM86.0 °F59.0 °F40 %29.98 in6.2 miSSE (150°)3.5 mph
11:30 AM86.0 °F57.2 °F37 %29.98 in6.2 miVariable3.5 mph
12:00 PM87.8 °F53.6 °F31 %29.98 in6.2 miVariable3.5 mph
12:30 PM89.6 °F55.4 °F31 %29.95 in6.2 miWSW (250°)3.5 mph
1:00 PM91.4 °F55.4 °F29 %29.95 in6.2 miVariable4.6 mph
1:30 PM93.2 °F55.4 °F28 %29.95 in6.2 miVariable3.5 mph
2:00 PM93.2 °F57.2 °F30 %29.95 in6.2 miVariable5.8 mph
2:30 PM93.2 °F55.4 °F28 %29.95 in6.2 miSW (220°)6.9 mph
3:00 PM95.0 °F55.4 °F26 %29.92 in6.2 miSSW (210°)6.9 mph
3:30 PM95.0 °F57.2 °F28 %29.92 in6.2 miSW (220°)6.9 mph
4:00 PM95.0 °F55.4 °F26 %29.92 in6.2 miSW (230°)8.1 mph
4:30 PM95.0 °F62.6 °F34 %29.92 in6.2 miSW (230°)11.5 mph
5:00 PM93.2 °F60.8 °F34 %29.89 in6.2 miWSW (240°)11.5 mph
5:30 PM93.2 °F60.8 °F34 %29.92 in6.2 miSW (230°)12.7 mph
6:00 PM91.4 °F62.6 °F38 %29.92 in6.2 miSW (230°)13.8 mph
6:30 PM89.6 °F62.6 °F40 %29.92 in6.2 miSW (220°)13.8 mph
7:00 PM87.8 °F57.2 °F35 %29.92 in6.2 miSW (230°)15.0 mph
7:30 PM86.0 °F57.2 °F37 %29.92 in6.2 miSW (220°)12.7 mph
8:00 PM82.4 °F60.8 °F48 %29.92 in6.2 miSSW (210°)10.4 mph
8:30 PM80.6 °F66.2 °F61 %29.92 in6.2 miSSW (210°)10.4 mph
9:00 PM78.8 °F66.2 °F65 %29.95 in6.2 miSouth (190°)6.9 mph
9:30 PM75.2 °F66.2 °F73 %29.95 in6.2 miSouth (170°)6.9 mph
10:00 PM77.0 °F66.2 °F69 %29.95 in6.2 miESE (110°)3.5 mph
10:30 PM75.2 °F66.2 °F73 %29.95 in6.2 miEast (90°)4.6 mph
11:00 PM73.4 °F66.2 °F78 %29.95 in6.2 miENE (70°)4.6 mph
11:30 PM73.4 °F64.4 °F73 %29.95 in6.2 miSouth (180°)4.6 mph
Hourly data recorded from LFMV, located miles away from Avignon, France







STORIES FROM OUR PARTNERS